Location: Palo Alto
(37.4420°N, 122.1420°W)
Time: 13:42:30
(UTC-07:00)

ISS - All Passes

Search period start: 23 May 2017 00:00
Search period end: 02 June 2017 00:00
Orbit: 402 x 409 km, 51.6° (Epoch: 24 May)

Date Brightness Start Highest point End Pass type
(mag) Time Alt. Az. Time Alt. Az. Time Alt. Az.
23 May - 03:11:03 10° N 03:11:40 10° NNE 03:12:18 10° NNE visible
23 May - 04:45:44 10° NW 04:48:52 41° NE 04:51:59 10° ESE visible
23 May - 06:22:55 10° W 06:25:07 17° SW 06:27:18 10° S daylight
23 May - 21:24:16 10° SSW 21:27:20 37° SE 21:30:25 10° ENE visible
23 May - 23:01:11 10° W 23:03:54 23° NNW 23:06:37 10° NNE visible
24 May - 03:53:56 10° NNW 03:56:42 24° NNE 03:59:28 10° E visible
24 May - 05:30:14 10° WNW 05:33:14 33° SW 05:36:12 10° SSE daylight
24 May - 20:33:03 10° S 20:35:26 19° SE 20:37:49 10° E daylight
24 May - 22:08:36 10° WSW 22:11:43 39° NW 22:14:50 10° NE visible
24 May - 23:48:36 10° NNW 23:48:57 10° NNW 23:49:17 10° N visible
25 May - 03:02:17 10° NNW 03:04:27 16° NNE 03:06:36 10° ENE visible
25 May - 04:38:00 10° NW 04:41:15 73° SW 04:44:30 10° SE visible
25 May - 21:16:19 10° SW 21:19:36 77° NW 21:22:54 10° NE visible
25 May - 22:54:46 10° NW 22:56:34 14° NNW 22:58:20 10° N visible
26 May - 02:10:51 10° N 02:12:05 12° NNE 02:13:19 10° NE visible
26 May - 03:45:58 10° NW 03:49:11 53° NE 03:52:23 10° ESE visible
26 May - 05:23:44 10° W 05:25:19 13° SW 05:26:54 10° SSW visible
26 May - 20:24:22 10° SSW 20:27:34 49° SE 20:30:46 10° ENE daylight
26 May - 22:01:43 10° WNW 22:04:14 20° NNW 22:06:44 10° NNE visible
27 May - 02:54:05 10° NNW 02:57:01 29° NNE 02:59:56 10° E visible
27 May - 04:30:39 10° WNW 04:33:26 26° SW 04:36:11 10° S visible
27 May - 19:32:52 10° S 19:35:35 24° SE 19:38:18 10° ENE daylight
27 May - 21:08:59 10° W 21:11:58 31° NNW 21:14:58 10° NNE visible
28 May - 02:02:19 10° NNW 02:04:45 19° NNE 02:07:09 10° ENE visible
28 May - 03:38:14 10° WNW 03:41:27 54° SW 03:44:38 10° SE night (unlit)
28 May - 18:42:20 10° SSE 18:43:41 12° SE 18:45:02 10° ESE daylight
28 May - 20:16:32 10° WSW 20:19:47 59° NW 20:23:03 10° NE daylight
28 May - 21:55:26 10° NW 21:56:51 12° NNW 21:58:16 10° N visible
29 May - 01:10:44 10° N 01:12:23 13° NNE 01:14:01 10° NE visible
29 May - 02:46:05 10° NW 02:49:22 70° NE 02:52:37 10° SE visible
29 May - 19:24:25 10° SW 19:27:40 67° SE 19:30:58 10° NE daylight
29 May - 21:02:11 10° WNW 21:04:27 17° NNW 21:06:44 10° NNE visible
30 May - 01:54:07 10° NW 01:57:11 36° NE 02:00:15 10° ESE visible
30 May - 03:31:01 10° W 03:33:30 20° SW 03:35:59 10° S night (unlit)
30 May - 18:32:41 10° SSW 18:35:38 31° SE 18:38:36 10° ENE daylight
30 May - 20:09:18 10° W 20:12:08 26° NNW 20:14:59 10° NNE daylight
31 May - 01:02:16 10° NNW 01:04:55 22° NNE 01:07:33 10° E visible
31 May - 02:38:24 10° WNW 02:41:31 41° SW 02:44:36 10° SSE night (unlit)
31 May - 17:41:37 10° SSE 17:43:40 16° SE 17:45:44 10° E daylight
31 May - 19:16:42 10° WSW 19:19:53 45° NW 19:23:04 10° NE daylight
31 May - 20:56:06 10° NW 20:57:02 11° NNW 20:57:58 10° N visible
01 Jun - 00:10:34 10° NNW 00:12:33 15° NNE 00:14:31 10° ENE visible
01 Jun - 01:46:08 10° NW 01:49:25 89° WSW 01:52:42 10° SE visible
01 Jun - 18:24:25 10° SW 18:27:42 88° SE 18:31:00 10° NE daylight
01 Jun - 20:02:34 10° WNW 20:04:35 15° NNW 20:06:35 10° NNE daylight
01 Jun - 23:19:12 10° N 23:20:05 11° NNE 23:20:58 10° NNE visible
